Dewpoint
64 67 67 67 68 69 69 71 72 72 72 72 71 71 71 71 69 69 70 70 70 70 70 72 73 71 70 70 69 72 73 72 73 74 74 74 74 75 76 77 76 73 74 73 71 72 73 72 72 72 73 72 70 68 65 64 66 65 67 66 65 68 69 70 69 70 71 70 67 64 65 66 62 65 64 64 66 67 68 69 70 66 64 63 62
65 67 67 66 66 67 67 69 70 70 71 71 72 71 70 71 71 71 69 70 71 70 72 70 73 72 71 72 72 72 74 76 73 73 74 74 74 71 71 75 76 74 74 76 74 71 72 74 73 72 72 71 69 67 66 63 63 62 63 63 65 67 70 69 69 70 70 70 68 69 67 66 65 67 68 67 67 69 67 68 66 63 62 64 65
64 67 65 67 67 65 66 67 67 69 68 69 68 68 70 70 71 71 69 69 71 71 71 69 72 73 72 73 74 74 76 74 74 73 74 75 75 73 70 72 73 72 72 73 72 73 71 72 71 71 67 68 69 68 66 65 65 65 65 66 67 66 67 69 70 70 70 70 71 68 68 68 68 68 69 67 71 68 70 67 62 58 60 62 61
67 70 69 66 65 65 66 65 65 65 65 66 67 67 67 69 72 70 69 68 68 71 70 70 72 74 73 74 75 75 76 74 73 73 75 75 75 75 74 74 74 74 73 74 74 73 73 74 71 69 69 69 70 70 69 67 68 70 70 70 70 69 70 71 71 72 71 70 72 71 70 70 70 69 67 68 66 67 66 67 65 64 63 62 62
67 68 69 68 67 65 64 63 63 64 63 64 64 65 66 67 70 70 71 67 68 69 71 71 73 74 71 73 75 75 75 74 74 72 72 73 74 73 74 75 73 73 73 74 74 74 74 74 72 71 71 69 69 69 69 71 72 70 70 70 72 71 72 72 73 72 72 71 71 73 72 71 71 70 70 68 68 69 70 71 67 68 69 65 62
67 69 69 68 68 67 65 63 61 62 61 60 60 62 64 67 70 68 69 68 68 67 69 70 71 74 73 73 73 75 75 74 75 74 72 72 72 73 73 74 73 73 73 71 71 71 71 71 70 70 70 70 70 70 72 73 73 70 69 71 72 72 73 73 74 74 73 73 74 71 73 69 70 71 72 71 68 68 70 72 71 72 72 68 66
71 72 70 68 69 68 67 66 64 61 61 60 59 60 61 61 64 68 69 67 67 66 66 69 70 71 73 72 71 73 74 74 76 76 74 73 72 72 70 71 72 71 72 70 69 70 70 69 71 71 71 71 70 70 72 73 71 72 73 74 73 73 72 72 73 73 73 73 70 69 68 69 70 69 70 72 73 73 74 71 69 69 71 72 72
73 74 74 69 70 69 68 68 65 64 63 65 63 60 59 60 61 62 64 64 64 66 65 66 68 69 72 71 72 72 74 74 75 76 74 73 74 73 73 71 70 70 69 70 69 67 67 68 67 69 70 71 71 71 71 71 72 73 73 73 74 75 73 71 72 72 71 69 68 67 68 71 71 69 69 71 71 71 67 65 66 67 68 74 69
75 75 75 73 72 71 69 69 69 68 64 65 64 63 62 62 62 63 64 62 61 62 63 64 66 67 69 71 70 70 69 71 72 75 75 75 75 74 73 73 71 70 70 69 68 68 67 66 66 66 71 72 74 77 76 75 71 72 72 72 72 71 72 72 72 73 72 70 70 70 67 69 70 70 66 65 66 65 65 63 66 64 65 66 70
76 75 75 74 74 75 72 71 71 71 68 67 68 67 65 64 62 63 62 62 65 67 66 65 64 65 67 70 70 67 67 68 78 76 76 74 74 72 73 75 73 72 70 70 67 67 66 66 65 68 71 71 74 76 75 75 77 73 72 74 74 74 73 73 72 71 70 69 67 67 65 62 59 63 61 61 64 66 64 67 66 65 67 69 72
76 75 74 74 75 76 76 75 73 73 72 70 72 72 70 68 67 68 67 66 67 69 67 65 63 64 65 67 68 67 67 70 69 67 69 73 72 73 74 75 74 74 70 70 70 67 65 64 65 71 74 77 75 78 77 76 75 74 74 75 77 74 71 70 71 71 71 69 68 65 62 64 63 64 64 59 58 61 65 70 69 70 71 70 70
73 75 75 75 76 76 77 76 76 76 75 74 74 75 73 74 72 72 70 69 71 68 67 68 68 66 64 65 65 67 69 65 63 65 67 67 71 74 69 69 67 68 67 65 67 67 65 64 63 61 64 69 69 74 78 77 75 75 74 74 74 74 74 74 72 71 71 68 68 67 66 67 66 67 63 61 66 69 72 73 74 73 72 71 71
74 74 74 75 75 76 77 77 77 77 77 77 78 75 78 78 78 77 74 73 72 71 71 69 69 68 66 66 63 65 69 63 62 63 64 65 66 72 68 68 66 65 65 66 67 69 68 68 67 65 59 74 73 72 75 77 76 74 74 74 74 73 69 68 70 76 72 74 71 70 69 69 69 70 69 71 73 73 74 73 74 74 73 72 72
72 72 73 73 74 75 75 74 74 74 75 76 75 77 77 77 76 76 75 75 74 73 70 70 69 71 69 67 69 72 69 61 60 61 62 63 64 66 70 68 67 65 65 65 64 67 67 68 69 67 67 68 77 76 75 75 77 78 78 77 77 77 74 69 68 68 71 70 71 71 72 73 72 73 76 76 75 75 74 74 74 72 73 73 74
72 72 72 73 73 73 74 72 72 73 72 74 75 76 72 76 76 76 76 75 74 74 72 71 70 70 69 66 70 66 61 57 57 59 59 60 62 67 71 67 64 62 62 63 68 67 70 68 70 69 73 73 69 70 75 76 76 74 74 72 71 72 71 72 73 72 72 71 71 72 73 74 75 77 74 75 74 74 74 75 74 73 73 73 72
72 72 72 73 73 73 73 72 72 72 73 73 74 75 75 76 76 76 76 76 76 74 74 72 72 71 71 70 70 66 60 55 56 56 57 59 60 73 74 72 69 66 64 67 70 74 74 74 73 74 74 71 64 63 67 73 73 73 73 73 72 70 67 71 67 67 72 70 69 67 68 71 66 72 73 71 74 74 73 73 72 72 70 71 71
71 73 73 72 72 72 72 72 73 72 72 72 71 73 73 73 72 73 74 74 74 75 74 73 72 71 72 72 67 66 62 57 54 54 55 56 65 73 74 73 73 73 72 74 73 74 74 75 74 74 71 69 61 58 61 69 74 73 74 73 73 72 71 69 69 68 66 64 63 64 63 62 62 62 62 62 68 70 71 71 71 70 70 71 69
70 70 71 71 72 71 72 72 72 72 72 72 72 72 73 72 72 73 73 73 73 73 71 70 70 71 70 69 65 63 61 58 53 53 54 54 62 72 72 75 74 74 75 74 74 73 73 74 72 69 68 66 58 57 59 68 73 74 73 72 72 72 72 72 72 72 69 67 64 63 63 63 63 62 62 62 62 66 71 69 70 70 70 70 71
69 69 69 70 70 71 71 72 72 71 71 71 71 71 71 71 72 73 72 72 71 72 71 70 70 70 68 65 66 62 60 60 54 53 53 53 63 72 75 72 73 74 74 73 72 73 72 70 70 66 66 62 55 56 58 65 70 72 73 72 71 71 72 71 72 72 73 73 74 75 76 73 77 76 75 72 69 71 72 71 72 73 71 70 70
69 68 69 69 70 70 70 70 70 70 70 70 71 71 71 71 70 69 69 69 69 71 72 71 69 69 68 67 65 63 62 61 59 53 52 53 56 70 71 71 72 72 71 73 71 72 73 70 67 59 57 56 54 54 54 56 67 69 71 71 71 71 70 69 71 71 73 73 73 72 72 73 73 73 73 73 75 75 75 75 74 73 72 71 70
68 68 68 68 68 69 69 69 68 69 69 68 69 69 69 68 68 68 68 68 68 69 68 68 67 67 67 67 65 64 63 62 61 53 52 52 54 61 68 67 68 70 71 72 72 72 72 71 66 60 56 55 54 52 52 55 58 68 70 70 69 69 65 69 70 71 72 73 72 71 72 72 73 72 72 73 73 74 75 75 75 74 73 71 71
67 68 68 67 67 67 67 67 67 68 67 67 66 65 66 66 66 66 68 67 66 66 67 67 66 65 65 65 64 64 63 63 62 57 53 52 52 54 62 64 64 69 69 69 70 70 70 70 66 62 55 53 53 54 54 56 59 70 69 55 53 57 69 70 69 70 72 71 70 70 70 72 70 71 70 70 70 71 71 74 72 74 75 74 73
65 65 67 67 68 68 67 65 64 64 64 66 65 64 64 64 65 65 64 64 66 65 65 66 65 65 65 65 65 64 62 62 61 61 55 52 51 52 53 59 57 69 68 66 66 66 68 68 67 62 54 51 51 54 55 57 62 63 53 53 55 57 63 70 70 70 70 70 69 69 68 68 68 68 69 69 68 71 69 69 69 71 74 76 76
65 65 64 64 64 64 63 63 62 63 63 64 66 63 63 63 63 63 63 63 62 62 66 64 64 63 62 62 62 63 63 63 61 61 60 54 52 51 52 53 54 62 61 58 56 54 58 58 60 53 50 48 50 54 56 60 62 55 54 55 58 64 69 67 65 67 68 67 66 66 66 66 66 66 66 68 67 69 67 67 68 68 68 71 75
63 63 63 62 61 60 61 60 62 62 62 62 62 62 62 63 62 62 63 62 63 62 61 61 62 62 61 61 62 62 62 62 62 63 61 60 55 54 54 54 54 55 60 56 57 56 57 53 52 51 51 51 52 54 55 60 58 57 56 57 67 65 65 65 65 66 66 65 65 64 64 65 64 64 66 68 68 67 68 67 67 67 66 66 68
61 61 60 60 59 59 57 57 57 58 59 60 62 61 61 61 61 61 61 61 61 61 61 59 60 61 60 61 62 63 64 65 65 63 61 60 60 58 57 58 60 61 60 55 61 58 56 54 54 53 55 58 65 61 58 60 60 60 60 64 63 61 61 61 62 62 63 62 62 62 62 62 62 65 67 67 66 65 67 66 65 64 63 63 63
60 60 59 57 60 57 55 54 54 58 56 56 58 60 58 60 62 63 62 62 64 61 58 60 59 58 58 58 59 59 60 59 59 59 60 60 59 59 62 60 60 60 55 53 57 59 61 58 55 54 54 56 59 60 63 60 62 57 57 53 58 58 57 59 58 60 61 60 60 60 60 61 63 64 63 63 64 65 65 63 62 61 62 63 63
56 56 54 54 54 54 55 57 56 53 54 55 54 56 56 56 58 60 60 60 57 60 60 59 58 56 55 55 57 56 56 56 58 59 56 56 58 57 55 55 56 56 52 54 57 60 60 62 59 60 61 60 59 58 55 55 55 54 54 49 54 56 55 57 56 58 58 58 58 59 59 60 59 59 59 60 60 61 61 60 61 61 61 61 62
57 55 55 54 53 56 55 55 53 54 58 59 58 57 56 56 58 58 56 55 57 59 58 60 59 55 58 59 58 55 55 56 56 50 54 47 53 56 53 52 50 53 57 51 57 59 60 57 54 52 51 49 48 49 47 48 50 51 51 51 51 51 51 55 53 54 55 55 56 57 56 57 58 58 58 57 59 58 60 60 61 60 61 60 58
56 55 54 54 54 53 54 52 54 53 52 55 56 55 53 46 51 57 56 51 47 46 49 55 56 60 56 56 56 57 56 55 47 43 42 43 43 44 43 42 41 49 49 47 54 59 58 54 50 49 49 50 48 49 47 49 51 50 50 52 50 50 50 52 52 51 55 54 54 53 55 56 56 56 56 56 57 56 57 57 58 59 59 56 54
55 55 55 55 53 53 52 53 54 55 55 55 56 56 55 55 43 44 49 49 45 42 42 43 45 48 59 56 54 48 48 45 42 42 43 43 42 41 40 40 40 41 42 52 58 56 52 51 50 51 50 52 50 50 50 51 51 51 51 51 51 51 52 53 52 53 54 53 53 53 54 55 54 54 54 55 55 55 55 56 55 56 55 54 54
54 52 53 56 58 55 55 56 55 56 55 55 56 55 55 55 55 45 43 45 44 43 42 42 42 43 45 50 59 56 48 42 42 43 44 42 42 41 40 40 40 41 43 45 58 55 52 52 52 52 52 51 51 52 51 51 52 53 52 53 52 52 54 54 54 55 53 52 52 52 54 53 53 53 53 53 53 53 54 54 54 54 53 53 54
53 54 56 57 55 56 56 56 56 56 56 57 56 55 52 54 53 53 54 44 42 42 42 42 42 43 43 41 41 42 43 41 41 41 41 42 41 40 40 40 43 44 46 57 55 53 52 52 52 52 52 52 51 51 52 50 52 52 51 52 52 52 54 56 56 55 53 52 52 52 52 52 52 52 52 52 52 52 53 53 52 53 52 52 52
55 56 57 57 57 57 56 57 57 57 56 56 56 55 54 53 51 54 53 53 54 50 45 41 42 41 41 42 42 42 41 42 41 41 40 40 40 40 40 49 45 43 45 56 53 53 51 51 51 52 51 52 51 50 51 51 52 52 52 52 52 53 54 55 55 53 52 51 51 51 52 50 51 52 51 51 51 51 51 51 51 51 52 51 50
57 57 56 56 59 58 58 57 55 56 55 55 55 52 53 55 54 52 51 52 54 54 52 53 46 47 51 45 42 42 42 40 41 41 40 40 41 40 43 55 57 57 56 55 52 50 50 51 50 51 51 50 51 51 51 51 51 51 51 51 51 51 52 52 51 52 51 51 52 51 51 51 51 51 51 51 50 50 50 50 51 51 51 50 49
55 55 55 55 56 55 55 56 55 55 55 55 54 51 52 52 52 51 50 51 52 49 51 53 53 47 45 43 43 43 42 42 42 41 42 41 41 42 53 55 51 50 49 52 50 49 49 50 49 50 50 50 51 51 51 49 50 50 50 50 51 50 51 51 50 50 51 52 51 51 50 51 50 50 49 49 49 48 48 48 47 48 49 48 48
52 52 52 53 54 54 54 54 55 54 55 53 53 52 51 51 50 50 50 49 50 49 49 53 53 52 50 53 52 44 43 43 44 42 41 41 38 50 52 51 49 50 49 49 48 49 48 49 49 49 50 48 49 49 49 49 49 50 51 50 50 50 50 48 48 51 51 50 49 51 51 50 48 48 47 47 47 47 47 48 48 47 47 46 47
53 53 53 53 54 55 54 54 52 50 53 50 52 51 49 50 50 48 49 49 49 49 48 50 47 50 54 52 49 50 52 43 43 45 44 44 50 52 50 49 50 49 49 49 49 48 48 48 48 48 49 47 48 48 48 49 48 47 48 50 50 50 50 48 50 51 51 49 48 48 48 47 47 47 46 47 46 46 46 46 45 44 45 46 47
52 53 52 53 54 52 51 50 50 47 49 48 48 50 49 48 47 48 48 48 48 47 49 48 48 48 48 49 49 49 51 49 49 50 51 49 49 49 49 49 48 48 49 48 49 48 47 47 47 48 47 47 47 47 47 46 46 46 48 47 47 46 46 46 48 48 47 46 46 46 46 46 46 46 46 45 45 45 45 45 44 44 44 44 45
46 48 49 51 50 49 48 48 48 47 47 45 47 47 48 48 47 47 47 47 49 47 47 48 48 49 48 50 47 45 46 47 48 48 47 48 48 48 48 47 47 48 48 48 47 48 46 46 46 46 47 47 47 46 46 47 46 45 46 45 45 45 45 45 45 44 45 45 45 45 45 45 45 44 45 44 44 44 45 44 44 45 43 43 43
44 45 48 51 49 47 47 46 46 45 46 45 45 45 46 47 47 47 47 47 47 47 47 47 47 48 47 46 42 42 43 44 47 47 46 47 47 47 47 46 47 47 47 46 46 47 45 46 45 45 45 46 46 45 46 44 44 44 44 44 43 44 43 44 44 44 45 45 44 44 43 44 43 43 42 44 44 43 43 43 43 42 42 43 42
44 44 44 46 48 45 44 43 45 46 47 46 45 44 46 47 46 46 47 48 46 46 45 45 45 48 43 41 39 38 39 41 44 46 47 46 46 46 46 46 45 47 46 45 45 46 45 46 45 43 44 44 44 44 43 43 43 42 42 42 43 43 42 42 43 45 45 44 44 43 43 43 43 43 43 44 42 42 42 41 41 41 41 41 41
46 44 44 46 44 45 43 43 45 44 44 43 44 45 47 45 45 46 45 45 45 45 46 46 46 47 47 43 43 42 42 41 43 44 44 45 45 46 45 44 44 45 46 45 45 45 44 43 43 42 43 43 44 45 43 43 43 42 41 43 43 43 43 43 43 43 43 43 42 43 42 41 41 41 41 42 41 41 41 41 41 40 39 40 40
44 43 44 43 42 44 45 43 44 44 44 44 44 46 45 45 44 45 45 44 45 44 44 43 44 45 46 43 44 43 44 44 44 43 45 43 43 42 44 44 43 43 45 44 44 45 43 43 42 41 43 43 43 45 43 43 42 42 42 42 42 43 42 42 41 41 41 41 41 41 41 41 40 39 40 41 40 40 40 41 41 40 38 38 39
42 42 42 41 44 45 43 46 43 44 44 44 45 45 45 44 44 44 44 43 43 43 42 42 43 43 42 43 45 43 43 43 42 42 42 43 42 42 42 43 44 46 45 44 44 44 44 42 42 42 42 41 42 42 42 42 43 43 42 42 42 41 40 41 41 40 40 41 40 40 39 39 38 38 38 38 40 40 39 40 39 40 38 38 38
41 41 41 41 43 44 44 43 45 44 44 44 43 43 43 43 44 44 43 43 43 41 41 41 41 42 40 40 40 41 41 42 43 41 41 41 41 41 42 42 44 44 43 43 43 43 42 42 42 41 41 41 42 41 41 42 42 42 43 42 42 40 39 39 40 40 40 40 39 39 38 38 37 37 40 38 38 38 39 39 39 38 37 37 36
43 43 40 42 41 43 44 46 44 44 44 43 44 43 42 42 42 43 42 43 42 42 41 41 40 39 40 41 40 41 41 40 40 40 41 42 43 42 42 43 43 43 42 42 43 41 42 41 40 40 40 41 40 41 40 40 41 41 42 42 40 39 38 38 39 40 40 40 39 37 37 37 37 37 38 38 38 38 39 38 38 38 36 36 36
42 42 42 43 43 42 42 44 43 44 43 43 43 43 42 41 41 41 40 40 37 39 39 39 39 39 40 40 40 39 40 39 40 40 39 38 39 41 42 43 42 40 41 41 41 40 39 39 40 40 40 40 40 39 40 40 41 40 41 41 39 38 39 39 39 40 38 38 38 38 38 37 37 37 37 38 38 37 38 37 38 37 38 38 38
41 41 41 42 42 41 41 40 43 39 41 40 40 40 40 39 38 39 40 40 39 39 38 39 39 39 40 40 39 39 39 39 39 39 37 37 39 40 40 41 41 40 40 39 38 39 39 38 39 39 38 39 39 39 38 39 39 39 39 40 38 38 37 38 39 38 38 37 37 37 38 38 38 38 38 38 38 37 37 38 38 38 37 38 38
41 42 42 41 40 40 41 40 37 38 39 39 37 37 38 38 38 39 38 38 38 38 38 39 39 39 38 38 38 38 38 38 38 38 37 38 39 38 38 39 39 39 38 38 38 38 38 38 38 38 38 38 37 37 37 37 37 38 40 39 38 37 36 37 38 38 38 37 37 37 37 37 38 38 38 38 38 38 38 38 38 38 38 38 38
42 41 40 39 39 39 39 38 38 38 38 37 37 37 37 37 37 37 37 37 38 38 38 38 38 37 39 38 37 37 37 38 38 37 37 38 37 37 38 37 37 38 38 38 37 37 37 37 37 37 37 37 37 36 36 36 39 39 39 38 36 34 34 36 38 35 36 36 38 37 37 37 38 38 38 38 38 38 39 39 39 38 38 38 39